NULL Weather Reports


time (UTC)temp
C
wind
direction
speed
KPH
gust
KPH
rain 1hr
cm
rain 24hr
cm
rain mn
cm
humidity
%
barometer
mb
20260505100036 13 150 0.0 0.0 0.25 0.25 0.25 93 1012.8
20260505100023 12 52 12.9 22.5 0.00 0.03 0.03 49 1010.5
20260505094534 13 150 0.0 0.0 0.20 0.20 0.20 92 1013.1
20260505094516 12 12 9.7 19.3 0.00 0.03 0.03 52 1010.4
20260505093037 13 150 0.0 0.0 0.10 0.10 0.10 92 1013.3
20260505093013 12 39 8.0 17.7 0.00 0.03 0.03 53 1010.0
20260505091530 13 150 0.0 0.0 0.00 0.00 0.00 91 1013.4
20260505091512 12 339 9.7 19.3 0.00 0.03 0.03 54 1009.6
20260505090029 13 150 0.0 0.0 0.00 0.00 0.00 90 1013.5
20260505090010 12 18 11.3 17.7 0.00 0.03 0.03 53 1009.0
20260505084529 13 150 0.0 0.0 0.00 0.00 0.00 90 1013.6
20260505084514 12 35 9.7 24.1 0.00 0.03 0.03 52 1008.8
20260505083027 13 150 0.0 0.0 0.00 0.00 0.00 89 1013.7
20260505083010 12 46 11.3 22.5 0.03 0.03 0.03 52 1008.5
20260505081524 13 150 0.0 0.0 0.00 0.00 0.00 89 1013.9
20260505081505 12 49 11.3 27.4 0.03 0.03 0.03 51 1008.8
20260505080025 13 150 0.0 0.0 0.00 0.00 0.00 88 1014.1
20260505080003 12 46 9.7 20.9 0.03 0.03 0.03 52 1009.6
20260505074519 14 148 0.0 0.0 0.00 0.00 0.00 87 1014.1
20260505074502 12 19 9.7 24.1 0.03 0.03 0.03 53 1009.1
20260505073102 12 354 9.7 16.1 0.00 0.00 0.00 58 1009.6
20260505073018 14 148 0.0 0.0 0.00 0.00 0.00 85 1014.2
20260505071558 13 359 3.2 20.9 0.00 0.00 0.00 52 1009.9
20260505071516 15 148 0.0 0.0 0.00 0.00 0.00 84 1014.2
20260505070055 14 359 6.4 22.5 0.00 0.00 0.00 44 1009.4
20260505070014 15 148 0.0 0.0 0.00 0.00 0.00 85 1014.1
20260505064548 14 359 16.1 30.6 0.00 0.00 0.00 42 1008.6
20260505064513 15 148 0.0 0.0 0.00 0.00 0.00 85 1014.1
20260505063044 15 57 20.9 33.8 0.00 0.00 0.00 41 1007.4
20260505063016 15 148 0.0 0.0 0.00 0.00 0.00 85 1014.3
20260505061541 15 70 12.9 30.6 0.00 0.00 0.00 41 1007.5
20260505061512 15 148 0.0 0.0 0.00 0.00 0.00 84 1014.3
20260505060038 15 81 24.1 46.7 0.00 0.00 0.00 40 1007.2
20260505060011 15 148 0.0 0.0 0.00 0.00 0.00 84 1014.4
20260505054534 16 23 24.1 46.7 0.00 0.00 0.00 39 1007.1
20260505054511 15 148 0.0 0.0 0.00 0.00 0.00 84 1014.6
20260505053029 17 31 22.5 38.6 0.00 0.00 0.00 39 1006.9
20260505053010 15 148 0.0 0.0 0.00 0.00 0.00 84 1014.7
20260505051529 15 144 0.0 0.0 0.00 0.00 0.00 83 1014.6
20260505051526 18 33 17.7 40.2 0.00 0.00 0.00 38 1006.6
20260505041536 20 354 9.7 27.4 0.00 0.00 0.00 39 1005.0
20260505041508 15 170 0.0 0.0 0.00 0.00 0.00 83 1014.8
20260505040019 20 341 6.4 16.1 0.00 0.00 0.00 41 1004.9
20260505040010 15 165 0.0 0.0 0.00 0.00 0.00 82 1014.5
20260505034517 21 354 8.0 16.1 0.00 0.00 0.00 40 1004.8
20260505034506 15 153 0.0 0.0 0.00 0.00 0.00 80 1014.5
20260505033016 21 14 12.9 24.1 0.00 0.00 0.00 40 1004.5
20260505033006 15 171 0.0 0.0 0.00 0.00 0.00 79 1014.4
20260505031517 21 64 9.7 16.1 0.00 0.00 0.00 56 1004.1
20260505031505 15 145 0.0 0.0 0.00 0.00 0.00 78 1014.2
20260505030015 19 345 0.0 3.2 0.00 0.00 0.00 69 1003.9
20260505030005 15 137 0.0 0.0 0.00 0.00 0.00 78 1014.0
20260505024517 18 341 9.7 19.3 0.00 0.00 0.00 72 1003.5
20260505024509 15 175 0.0 0.0 0.00 0.00 0.00 77 1014.0
20260505023015 20 208 0.0 1.6 0.00 0.00 0.00 69 1002.5
20260505023004 16 118 0.0 0.0 0.00 0.00 0.00 78 1014.0
20260505021513 20 208 0.0 3.2 0.00 0.00 0.00 65 1002.3
20260505021504 16 167 0.0 0.0 0.00 0.00 0.00 77 1014.1
20260505020017 21 209 1.6 4.8 0.00 0.00 0.00 61 1002.0
20260505020007 16 160 0.0 0.0 0.00 0.00 0.00 75 1014.1
20260505014513 22 205 3.2 4.8 0.00 0.00 0.00 58 1001.9
20260505014502 17 186 0.0 0.0 0.00 0.00 0.00 74 1014.0
20260505013013 22 147 3.2 8.0 0.00 0.00 0.00 55 1001.8
20260505013003 17 160 0.0 0.0 0.00 0.00 0.00 67 1014.0
20260505011512 23 147 0.0 4.8 0.00 0.00 0.00 52 1001.6
20260505011504 17 140 0.0 0.0 0.00 0.00 0.00 64 1014.0
20260505010011 24 206 3.2 6.4 0.00 0.00 0.00 49 1001.5
20260505010001 18 163 0.0 0.0 0.00 0.00 0.00 65 1014.0
20260505004513 25 359 3.2 8.0 0.00 0.00 0.00 46 1001.4
20260505004504 18 164 0.0 0.0 0.00 0.00 0.00 64 1014.0
20260505003101 18 289 0.0 0.0 0.00 0.00 0.00 62 1014.0
20260505003009 25 182 1.6 8.0 0.00 0.00 0.00 45 1001.2
20260505001605 18 174 0.0 1.6 0.00 0.00 0.00 61 1014.2
20260505001510 26 201 4.8 14.5 0.00 0.00 0.00 44 1001.2
20260505000013 26 224 4.8 12.9 0.00 0.00 0.00 44 1001.3
20260504234559 19 179 0.0 1.6 0.00 0.00 0.00 59 1014.0
20260504234508 26 202 1.6 12.9 0.00 0.00 0.00 46 1001.2
20260504233108 19 123 0.0 1.6 0.00 0.00 0.00 59 1013.9
20260504233007 26 228 3.2 12.9 0.00 0.00 0.00 44 1001.3
20260504231603 19 153 0.0 1.6 0.00 0.00 0.00 60 1013.9
20260504231506 26 166 6.4 19.3 0.00 0.00 0.00 42 1001.3
20260504230058 19 130 0.0 1.6 0.00 0.00 0.00 61 1013.9
20260504230014 27 208 9.7 24.1 0.00 0.00 0.00 41 1001.3
20260504224555 19 165 0.0 4.8 0.00 0.00 0.00 62 1014.2
20260504224505 27 195 9.7 19.3 0.00 0.00 0.00 41 1001.2
20260504223055 19 160 0.0 1.6 0.00 0.00 0.00 63 1014.3
20260504223004 27 264 8.0 20.9 0.00 0.00 0.00 39 1001.2
20260504221553 19 130 0.0 0.0 0.00 0.00 0.00 63 1014.4
20260504221504 27 224 9.7 20.9 0.00 0.00 0.00 36 1001.2
20260504220052 19 134 0.0 1.6 0.00 0.00 0.00 60 1014.5
20260504220002 27 231 12.9 29.0 0.00 0.00 0.00 37 1001.2
20260504214555 18 156 0.0 1.6 0.00 0.00 0.00 65 1014.5
20260504214501 27 221 11.3 25.7 0.00 0.00 0.00 38 1001.4
20260504213141 27 242 11.3 22.5 0.00 0.00 0.00 38 1001.5
20260504213051 18 171 0.0 0.0 0.00 0.00 0.00 69 1014.8
20260504211606 27 253 12.9 25.7 0.00 0.00 0.00 37 1001.6
20260504211550 19 137 0.0 1.6 0.00 0.00 0.00 66 1015.0
20260504210104 19 172 0.0 1.6 0.00 0.00 0.00 64 1015.0
20260504210057 27 226 11.3 27.4 0.00 0.00 0.00 37 1001.6
20260504204557 27 206 9.7 29.0 0.00 0.00 0.00 37 1001.7
20260504203117 27 162 9.7 25.7 0.00 0.00 0.00 38 1001.9
20260504203103 19 156 0.0 0.0 0.00 0.00 0.00 63 1015.0
20260504201551 27 182 8.0 25.7 0.00 0.00 0.00 39 1002.2
20260504201548 19 160 0.0 0.0 0.00 0.00 0.00 63 1015.0
20260504200051 27 120 8.0 24.1 0.00 0.00 0.00 40 1002.4
20260504200047 20 207 0.0 3.2 0.00 0.00 0.00 63 1015.1
20260504194559 27 209 9.7 24.1 0.00 0.00 0.00 41 1002.5
20260504194545 19 146 0.0 0.0 0.00 0.00 0.00 64 1015.2
20260504193056 26 229 11.3 19.3 0.00 0.00 0.00 40 1002.6
20260504193041 18 155 0.0 1.6 0.00 0.00 0.00 64 1015.4
20260504191544 26 222 11.3 24.1 0.00 0.00 0.00 43 1002.4
20260504191542 18 215 0.0 0.0 0.00 0.00 0.00 64 1015.3
20260504190100 18 155 0.0 0.0 0.00 0.00 0.00 64 1015.4
20260504190042 26 202 11.3 19.3 0.00 0.00 0.00 43 1002.5
20260504184541 26 225 14.5 27.4 0.00 0.00 0.00 43 1002.6
20260504184539 18 227 0.0 0.0 0.00 0.00 0.00 65 1015.4
20260504183039 26 182 11.3 20.9 0.00 0.00 0.00 43 1002.7
20260504181541 18 136 0.0 0.0 0.00 0.00 0.00 63 1015.4
20260504181535 25 214 8.0 25.7 0.00 0.00 0.00 43 1002.7
20260504180039 18 160 0.0 0.0 0.00 0.00 0.00 62 1015.4
20260504180033 25 162 11.3 25.7 0.00 0.00 0.00 44 1002.8
20260504174537 18 178 0.0 0.0 0.00 0.00 0.00 60 1015.4
20260504174531 25 196 12.9 27.4 0.00 0.00 0.00 45 1002.8
20260504173036 25 196 12.9 24.1 0.00 0.00 0.00 46 1002.8
20260504171532 17 166 0.0 0.0 0.00 0.00 0.00 66 1015.2
20260504171526 24 171 8.0 20.9 0.00 0.00 0.00 47 1003.0
20260504140108 18 189 9.7 27.4 0.00 0.00 0.00 59 1003.9